Powrót do katalogu

SL-12 DEB

LostHEO
NORAD 35083·DEBRIS·🇷🇺 Russia

Wystrzelony Apr 4, 1991 z Baikonur Cosmodrome

Loading…

Następne Przeloty (najbliższe 24 godziny)

TLE

NieaktualneSource: Space-Track

Epoka: Oct 30, 2009, 09:41 UTC

1 35083U 91025AD  09303.40353552  .00000025  00000-0  10000-3 0  9999
2 35083  74.0003  93.0156 3808138  16.8025 341.8095  5.27249423  7939

Śledź SL-12 DEB w czasie rzeczywistym z AllMySat

Download on the App Store